Regional Weather Roundup
Issued by NWS Midland/Odessa, TX

Skip options and go directly to product.
Home | Oldest Version | Next Version | Current Version | All | Text Only | Save Text | Print | Product List | Glossary On

Skip product version selection by date and time.   
699
ASUS44 KMAF 301101
RWRMAF
MIDLAND AREA WEATHER ROUNDUP
NATIONAL WEATHER SERVICE MIDLAND TX
600 AM CDT MON MAR 30 2015

...IN SOUTHWEST TEXAS AND SOUTHEAST NEW MEXICO...

CITY           SKY/WX    TMP DP  RH WIND       PRES   REMARKS
ALPINE         MOCLDY    45  39  78 SW5       30.24S
ANDREWS        FAIR      51  38  63 NW7       30.20R
ARTESIA        CLOUDY    52  32  46 CALM      30.22S
BIG SPRING     PTCLDY    59  39  47 NE14      30.17S
CARLSBAD       MOCLDY    51  39  63 SW3       30.19S
DRYDEN           N/A     63  54  72 NE8       30.09R
FORT STOCKTON  PTCLDY    54  45  71 W6        30.15R
GUAD PASS      CLOUDY    53  30  41 NE29      30.24F
HOBBS          MOCLDY    48  34  57 N6        30.23S
MARFA          MOCLDY    46  37  71 N7        30.22R
MIDLAND AIRPK  MOCLDY    54  40  58 NE6       30.17R
MIDLAND INTL   MOCLDY    51  42  71 N7        30.17R
ODESSA         MOCLDY    52  40  63 N9        30.18R
PECOS          PTCLDY    54  40  58 NW7       30.16S
PRESIDIO       FAIR      65  35  32 N6        30.08R
SEMINOLE       MOCLDY    47  37  66 CALM      30.23S
SNYDER         CLEAR     52  38  58 NE5       30.18S
WINK           MOCLDY    54  37  52 N7        30.16R
$$
...OTHER STATIONS IN TEXAS...

CITY           SKY/WX    TMP DP  RH WIND       PRES   REMARKS
ABILENE        MOCLDY    52  45  77 W5        30.15R
AMARILLO       MOCLDY    49  27  42 SE10      30.21F
AUSTIN         CLOUDY    63  63 100 S6        30.10R
BROWNSVILLE    PTCLDY    69  67  93 SE12      30.07S
CORPUS CHRISTI CLOUDY    66  65  96 SE12      30.08S
DALLAS FTW     PTCLDY    61  55  81 E5        30.10R
DEL RIO        CLOUDY    65  59  81 E8        30.05R
EL PASO        CLOUDY    67  33  28 NE7       30.15S
HOUSTON INT    CLOUDY    62  62 100 CALM      30.15R
LUBBOCK        MOCLDY    46  31  55 SW5       30.21R
SAN ANGELO     MOCLDY    57  46  66 NE5       30.12S
SAN ANTONIO    CLOUDY    66  62  87 S9        30.11R
WACO           CLEAR     64  60  87 S13       30.09R
WICHITA FALLS  NOT AVBL
$$
...OTHER LOCATIONS IN NEW MEXICO...

CITY           SKY/WX    TMP DP  RH WIND       PRES   REMARKS
ALAMAGORDO     MOCLDY    59  28  31 S7        30.16F
ALBUQUERQUE    PTCLDY    54  25  32 N3        30.23S
CANNON AFB     NOT AVBL
CLOVIS         MOCLDY    43  27  52 SW3       30.25F
HOLLOMAN AFB   NOT AVBL
ROSWELL        CLOUDY    55  33  43 S7        30.21F
RUIDOSO        MOCLDY    46  27  46 SE10      30.33S
SANTA FE       CLEAR     48  20  32 CALM      30.28S
TRUTH OR CONSE CLOUDY    58  21  24 SW5       30.17R
TUCUMCARI      MOCLDY    47  27  45 SW8       30.23R
$$

USA.gov is the U.S. government's official web portal to all federal, state and local government web resources and services.